Grayling, MI

3:35 AM EDT on April 20, 2018 (GMT -0400)
Grayling

Weather History for KGOV - February, 2014

Change the Weather History Date:

Saturday, February 22, 2014

  Actual Average (KHTL) Record (KHTL)
Temperature  
Mean Temperature 23 °F -  
Max Temperature 28 °F 32 °F 64 °F (1930)
Min Temperature 18 °F 16 °F -22 °F (1936)
Degree Days  
Heating Degree Days 42    
Moisture  
Dew Point 12 °F    
Average Humidity 65    
Maximum Humidity 83    
Minimum Humidity 44    
Precipitation  
Precipitation 0.00 in - - ()
Sea Level Pressure  
Sea Level Pressure 29.68 in    
Wind  
Wind Speed 15 mph (WSW)    
Max Wind Speed 22 mph    
Max Gust Speed 32 mph    
Visibility 6 miles    
Events Snow    
Averages and records for this station are not official NWS values.
T = Trace of Precipitation, MM = Missing Value Source: NWS Daily Summary

Daily Weather History Graph

Daily Weather History Graph

Search for Another Location

Airport or City:

Astronomy

Feb. 22, 2014 Rise Set
Actual Time 7:28 AM EST 6:17 PM EST
Civil Twilight 6:58 AM EST 6:46 PM EST
Nautical Twilight 6:24 AM EST 7:20 PM EST
Astronomical Twilight 5:51 AM EST 7:54 PM EST
Moon 1:28 AM EST (2/22) 11:21 AM EST (2/22)
Length of Visible Light 11h 48m
Length of Day
10h 49m
Waning Gibbous, 50% of the Moon is Illuminated
Feb 22
Waning Gibbous
Feb 22
Last Quarter
Mar 1
New
Mar 8
First Quarter
Mar 16
Full

Hourly Weather History & Observations

Time (EST) Temp. Windchill Dew Point Humidity Pressure Visibility Wind Dir Wind Speed Gust Speed Precip Events Conditions
12:14 AM 23.0 °F 9.6 °F 13.8 °F 68% 29.50 in 7.0 mi WSW 16.1 mph 25.3 mph N/A Snow Light Snow
12:35 AM 23.0 °F 8.0 °F 13.6 °F 67% 29.51 in 3.0 mi WSW 20.7 mph 32.2 mph N/A Snow Light Snow
12:55 AM 23.0 °F 8.3 °F 14.0 °F 68% 29.51 in 7.0 mi WSW 19.6 mph 26.5 mph N/A Snow Light Snow
1:14 AM 21.7 °F 7.5 °F 13.1 °F 69% 29.52 in 5.0 mi SW 17.3 mph 31.1 mph N/A Snow Light Snow
1:35 AM 21.7 °F 8.5 °F 13.3 °F 70% 29.52 in 5.0 mi WSW 15.0 mph 26.5 mph N/A Snow Light Snow
1:55 AM 21.2 °F 7.8 °F 13.1 °F 71% 29.53 in 7.0 mi WSW 15.0 mph 26.5 mph N/A Snow Light Snow
2:15 AM 21.0 °F 8.1 °F 13.3 °F 72% 29.54 in 5.0 mi WSW 13.8 mph 26.5 mph N/A Snow Light Snow
2:35 AM 20.7 °F 8.8 °F 13.3 °F 73% 29.54 in 5.0 mi WSW 11.5 mph 20.7 mph N/A Snow Light Snow
2:54 AM 20.3 °F 6.1 °F 13.1 °F 74% 29.54 in 5.0 mi SW 16.1 mph 24.2 mph N/A Snow Light Snow
3:15 AM 20.3 °F 7.2 °F 13.6 °F 75% 29.55 in 5.0 mi SW 13.8 mph 19.6 mph N/A Snow Light Snow
3:35 AM 20.3 °F 5.7 °F 13.8 °F 76% 29.55 in 5.0 mi WSW 17.3 mph 24.2 mph N/A Snow Light Snow
3:54 AM 19.4 °F 5.5 °F 13.1 °F 76% 29.55 in 5.0 mi SW 15.0 mph 20.7 mph N/A Snow Light Snow
4:15 AM 19.4 °F 6.0 °F 13.1 °F 76% 29.55 in 5.0 mi WSW 13.8 mph 19.6 mph N/A Snow Light Snow
4:35 AM 19.4 °F 6.0 °F 13.1 °F 76% 29.56 in 5.0 mi WSW 13.8 mph 18.4 mph N/A Snow Light Snow
4:55 AM 19.2 °F 5.3 °F 12.7 °F 76% 29.56 in 4.0 mi WSW 15.0 mph 25.3 mph N/A Snow Light Snow
5:15 AM 19.2 °F 4.7 °F 13.1 °F 77% 29.57 in 4.0 mi WSW 16.1 mph 19.6 mph N/A Snow Light Snow
5:34 AM 19.2 °F 5.3 °F 13.1 °F 77% 29.57 in 4.0 mi WSW 15.0 mph 20.7 mph N/A Snow Light Snow
5:55 AM 19.2 °F 4.3 °F 13.1 °F 77% 29.58 in 4.0 mi WSW 17.3 mph 24.2 mph N/A Snow Light Snow
6:14 AM 19.2 °F 5.3 °F 13.1 °F 77% 29.59 in 3.0 mi WSW 15.0 mph 26.5 mph N/A Snow Light Snow
6:35 AM 19.2 °F 4.7 °F 13.3 °F 78% 29.60 in 3.0 mi WSW 16.1 mph 25.3 mph N/A Snow Light Snow
6:55 AM 18.9 °F 4.8 °F 13.6 °F 80% 29.61 in 3.0 mi WSW 15.0 mph 25.3 mph N/A Snow Light Snow
7:15 AM 18.5 °F 5.5 °F 13.8 °F 82% 29.62 in 2.5 mi WSW 12.7 mph 23.0 mph N/A Snow Light Snow
7:35 AM 18.1 °F 5.0 °F 13.1 °F 81% 29.63 in 1.8 mi WSW 12.7 mph 21.9 mph N/A Snow Light Snow
7:55 AM 18.5 °F 5.5 °F 14.0 °F 83% 29.64 in 1.2 mi WSW 12.7 mph 18.4 mph N/A Snow Light Snow
8:15 AM 18.5 °F 4.3 °F 13.8 °F 82% 29.65 in 1.5 mi WSW 15.0 mph 25.3 mph N/A Snow Light Snow
8:34 AM 18.1 °F 4.4 °F 13.8 °F 83% 29.65 in 1.2 mi WSW 13.8 mph 23.0 mph N/A Snow Light Snow
8:55 AM 18.3 °F 5.9 °F 13.6 °F 82% 29.66 in 1.5 mi WSW 11.5 mph 18.4 mph N/A Snow Light Snow
9:15 AM 19.2 °F 3.4 °F 13.1 °F 77% 29.67 in 2.0 mi WSW 19.6 mph 32.2 mph N/A Snow Light Snow
9:34 AM 19.2 °F 5.3 °F 12.2 °F 74% 29.68 in 2.5 mi WSW 15.0 mph 25.3 mph N/A Snow Light Snow
9:55 AM 19.2 °F 4.3 °F 11.8 °F 73% 29.68 in 1.8 mi WSW 17.3 mph 28.8 mph N/A Snow Light Snow
10:14 AM 19.2 °F 5.8 °F 12.0 °F 74% 29.69 in 2.5 mi WSW 13.8 mph 23.0 mph N/A Snow Light Snow
10:35 AM 19.6 °F 5.7 °F 13.1 °F 76% 29.69 in 1.0 mi WSW 15.0 mph 24.2 mph N/A Snow Light Snow
10:55 AM 20.3 °F 6.6 °F 12.9 °F 73% 29.69 in 1.8 mi WSW 15.0 mph 24.2 mph N/A Snow Light Snow
11:15 AM 20.3 °F 4.8 °F 12.7 °F 73% 29.70 in 1.2 mi West 19.6 mph 28.8 mph N/A Snow Light Snow
11:35 AM 21.0 °F 7.1 °F 12.4 °F 69% 29.71 in 2.5 mi WSW 16.1 mph 24.2 mph N/A Snow Light Snow
11:54 AM 21.4 °F 9.1 °F 11.8 °F 67% 29.72 in 4.0 mi WSW 12.7 mph 25.3 mph N/A Snow Light Snow
12:15 PM 24.6 °F 12.2 °F 13.1 °F 62% 29.72 in 10.0 mi WSW 15.0 mph 23.0 mph N/A   Mostly Cloudy
12:35 PM 25.0 °F 11.7 °F 12.9 °F 60% 29.72 in 5.0 mi SW 17.3 mph 23.0 mph N/A   Haze
12:55 PM 25.5 °F 12.9 °F 12.2 °F 57% 29.71 in 7.0 mi SW 16.1 mph 26.5 mph N/A   Scattered Clouds
1:15 PM 25.5 °F 12.9 °F 12.4 °F 58% 29.70 in 7.0 mi WSW 16.1 mph 21.9 mph N/A   Scattered Clouds
1:34 PM 28.0 °F 17.5 °F 13.6 °F 55% 29.70 in 10.0 mi WSW 12.7 mph 24.2 mph N/A   Clear
1:55 PM 28.0 °F 19.3 °F 12.7 °F 53% 29.71 in 10.0 mi WSW 9.2 mph 25.3 mph N/A   Clear
2:15 PM 28.0 °F 14.6 °F 11.7 °F 50% 29.70 in 10.0 mi West 20.7 mph 31.1 mph N/A   Clear
2:35 PM 28.4 °F 16.2 °F 12.0 °F 50% 29.70 in 10.0 mi WSW 17.3 mph 26.5 mph N/A   Clear
2:55 PM 28.2 °F 16.3 °F 10.8 °F 48% 29.70 in 10.0 mi WSW 16.1 mph 29.9 mph N/A   Clear
3:14 PM 28.4 °F 18.0 °F 10.8 °F 48% 29.72 in 5.0 mi WSW 12.7 mph 27.6 mph N/A   Haze
3:35 PM 28.2 °F 14.5 °F 9.5 °F 45% 29.73 in 5.0 mi SW 21.9 mph 31.1 mph N/A   Haze
3:55 PM 28.4 °F 15.8 °F 9.1 °F 44% 29.73 in 7.0 mi WSW 18.4 mph 25.3 mph N/A   Clear
4:15 PM 28.0 °F 14.9 °F 9.3 °F 45% 29.73 in 10.0 mi WSW 19.6 mph 28.8 mph N/A   Clear
4:35 PM 28.0 °F 16.5 °F 9.3 °F 45% 29.74 in 10.0 mi WSW 15.0 mph 24.2 mph N/A   Clear
4:54 PM 28.0 °F 15.7 °F 9.1 °F 45% 29.74 in 10.0 mi WSW 17.3 mph 26.5 mph N/A   Clear
5:15 PM 28.0 °F 16.1 °F 9.5 °F 46% 29.75 in 10.0 mi WSW 16.1 mph 28.8 mph N/A   Clear
5:35 PM 28.0 °F 16.5 °F 10.4 °F 48% 29.75 in 10.0 mi WSW 15.0 mph 29.9 mph N/A   Clear
5:55 PM 27.5 °F 17.4 °F 10.4 °F 49% 29.76 in 10.0 mi WSW 11.5 mph 25.3 mph N/A   Clear
6:15 PM 25.5 °F 14.3 °F 9.9 °F 52% 29.77 in 10.0 mi WSW 12.7 mph 18.4 mph N/A   Clear
6:34 PM 25.3 °F 15.3 °F 10.9 °F 54% 29.77 in 10.0 mi WSW 10.4 mph 18.4 mph N/A   Scattered Clouds
6:55 PM 23.0 °F 12.4 °F 9.5 °F 56% 29.78 in 10.0 mi SW 10.4 mph 17.3 mph N/A   Clear
7:15 PM 23.0 °F 11.7 °F 10.0 °F 58% 29.79 in 10.0 mi WSW 11.5 mph 17.3 mph N/A   Clear
7:35 PM 23.0 °F 13.9 °F 10.9 °F 60% 29.79 in 10.0 mi WSW 8.1 mph 18.4 mph N/A   Scattered Clouds
7:55 PM 22.8 °F 11.5 °F 10.9 °F 60% 29.79 in 10.0 mi SW 11.5 mph 18.4 mph N/A   Scattered Clouds
8:15 PM 21.2 °F 10.1 °F 10.4 °F 63% 29.79 in 10.0 mi WSW 10.4 mph 16.1 mph N/A   Clear
8:35 PM 21.0 °F 10.6 °F 10.8 °F 65% 29.80 in 10.0 mi SW 9.2 mph - N/A   Clear
8:55 PM 21.0 °F 10.6 °F 10.9 °F 65% 29.81 in 10.0 mi SW 9.2 mph - N/A   Clear
9:15 PM 20.8 °F 10.4 °F 10.9 °F 66% 29.81 in 10.0 mi WSW 9.2 mph - N/A   Scattered Clouds
9:35 PM 21.0 °F 9.9 °F 10.9 °F 65% 29.81 in 10.0 mi WSW 10.4 mph - N/A   Mostly Cloudy
9:55 PM 21.0 °F 10.6 °F 10.8 °F 65% 29.82 in 10.0 mi WSW 9.2 mph 19.6 mph N/A   Mostly Cloudy
10:15 PM 21.2 °F 10.9 °F 10.6 °F 64% 29.83 in 10.0 mi WSW 9.2 mph 16.1 mph N/A   Overcast
10:34 PM 21.7 °F 12.3 °F 10.9 °F 63% 29.83 in 10.0 mi WSW 8.1 mph 19.6 mph N/A Snow Light Snow
10:55 PM 21.4 °F 7.5 °F 10.4 °F 63% 29.83 in 10.0 mi West 16.1 mph 24.2 mph N/A   Overcast
11:15 PM 20.8 °F 8.4 °F 9.1 °F 61% 29.83 in 10.0 mi West 12.7 mph 21.9 mph N/A   Mostly Cloudy
11:35 PM 20.7 °F 8.8 °F 9.5 °F 62% 29.84 in 10.0 mi WSW 11.5 mph 21.9 mph N/A Snow Light Snow
11:55 PM 20.3 °F 8.3 °F 9.5 °F 63% 29.84 in 10.0 mi West 11.5 mph 21.9 mph N/A   Overcast